| time (UTC) | temp C | wind direction | speed KPH | gust KPH | rain 1hr cm | rain 24hr cm | rain mn cm | humidity % | barometer mb |
| 20260505041600 | 11 | 0 | 0.0 | 0.0 | 0.08 | 0.20 | 0.15 | 93 | 1013.9 |
| 20260505040058 | 11 | 0 | 0.0 | 0.0 | 0.00 | 0.15 | 0.08 | 94 | 1014.1 |
| 20260505034556 | 11 | 0 | 0.0 | 0.0 | 0.00 | 0.15 | 0.08 | 94 | 1014.3 |
| 20260505033052 | 11 | 0 | 0.0 | 0.0 | 0.00 | 0.13 | 0.08 | 94 | 1014.4 |
| 20260505031606 | 11 | 0 | 0.0 | 0.0 | 0.00 | 0.13 | 0.08 | 93 | 1014.4 |
| 20260505030055 | 11 | 0 | 0.0 | 0.0 | 0.00 | 0.13 | 0.08 | 93 | 1014.4 |
| 20260505024613 | 11 | 0 | 0.0 | 0.0 | 0.00 | 0.13 | 0.08 | 92 | 1014.4 |
| 20260505023111 | 12 | 0 | 0.0 | 1.6 | 0.00 | 0.13 | 0.08 | 92 | 1014.5 |
| 20260505021553 | 12 | 0 | 0.0 | 1.6 | 0.00 | 0.13 | 0.08 | 91 | 1014.5 |
| 20260505020053 | 12 | 0 | 0.0 | 1.6 | 0.00 | 0.13 | 0.08 | 90 | 1014.4 |
| 20260505014605 | 12 | 0 | 0.0 | 1.6 | 0.00 | 0.13 | 0.08 | 89 | 1014.3 |
| 20260505013108 | 12 | 0 | 0.0 | 1.6 | 0.00 | 0.13 | 0.08 | 89 | 1014.4 |
| 20260505011554 | 12 | 244 | 0.0 | 3.2 | 0.00 | 0.13 | 0.08 | 89 | 1014.5 |
| 20260505010053 | 12 | 237 | 0.0 | 3.2 | 0.00 | 0.10 | 0.05 | 90 | 1014.7 |
| 20260505004556 | 12 | 261 | 3.2 | 6.4 | 0.05 | 0.10 | 0.05 | 89 | 1014.9 |
| 20260505003053 | 12 | 254 | 0.0 | 1.6 | 0.05 | 0.10 | 0.05 | 87 | 1015.4 |
| 20260505001556 | 12 | 0 | 0.0 | 0.0 | 0.05 | 0.10 | 0.05 | 87 | 1016.0 |
| 20260505000112 | 12 | 0 | 0.0 | 1.6 | 0.05 | 0.10 | 0.05 | 82 | 1016.1 |
| 20260504234551 | 13 | 0 | 0.0 | 1.6 | 0.00 | 0.05 | 0.00 | 80 | 1016.2 |
| 20260504233057 | 12 | 0 | 0.0 | 0.0 | 0.00 | 0.05 | 0.00 | 82 | 1016.4 |
| 20260504231553 | 12 | 0 | 0.0 | 1.6 | 0.00 | 0.05 | 0.00 | 80 | 1016.5 |
| 20260504230106 | 12 | 225 | 0.0 | 0.0 | 0.00 | 0.05 | 0.00 | 82 | 1016.7 |
| 20260504224557 | 13 | 0 | 0.0 | 0.0 | 0.00 | 0.05 | 0.00 | 82 | 1016.9 |
| 20260504223056 | 13 | 0 | 0.0 | 1.6 | 0.00 | 0.05 | 0.00 | 79 | 1016.9 |
| 20260504221603 | 13 | 225 | 0.0 | 1.6 | 0.00 | 0.05 | 0.00 | 80 | 1016.9 |
| 20260504220101 | 12 | 0 | 0.0 | 0.0 | 0.00 | 0.05 | 0.00 | 83 | 1017.2 |
| 20260504214557 | 13 | 0 | 0.0 | 1.6 | 0.00 | 0.05 | 0.05 | 83 | 1017.5 |
| 20260504213054 | 13 | 0 | 0.0 | 0.0 | 0.00 | 0.05 | 0.05 | 82 | 1017.5 |
| 20260504211553 | 13 | 0 | 0.0 | 1.6 | 0.00 | 0.05 | 0.05 | 82 | 1017.7 |
| 20260504210056 | 13 | 0 | 0.0 | 4.8 | 0.00 | 0.05 | 0.05 | 80 | 1017.6 |
| 20260504204603 | 13 | 0 | 0.0 | 3.2 | 0.00 | 0.05 | 0.05 | 79 | 1017.6 |
| 20260504203107 | 13 | 217 | 1.6 | 6.4 | 0.00 | 0.05 | 0.05 | 78 | 1017.7 |
| 20260504201554 | 13 | 254 | 0.0 | 3.2 | 0.00 | 0.05 | 0.05 | 79 | 1017.8 |
| 20260504200058 | 13 | 0 | 0.0 | 4.8 | 0.00 | 0.05 | 0.05 | 80 | 1017.9 |
| 20260504194556 | 13 | 260 | 0.0 | 3.2 | 0.00 | 0.05 | 0.05 | 81 | 1017.7 |
| 20260504193058 | 13 | 281 | 1.6 | 4.8 | 0.00 | 0.05 | 0.05 | 82 | 1017.7 |
| 20260504191606 | 13 | 290 | 1.6 | 6.4 | 0.00 | 0.05 | 0.05 | 81 | 1017.5 |
| 20260504190117 | 13 | 245 | 0.0 | 6.4 | 0.00 | 0.05 | 0.05 | 81 | 1017.4 |
| 20260504184555 | 13 | 265 | 1.6 | 6.4 | 0.00 | 0.05 | 0.05 | 80 | 1017.3 |
| 20260504183104 | 13 | 249 | 3.2 | 11.3 | 0.03 | 0.05 | 0.05 | 81 | 1017.2 |
| 20260504181601 | 13 | 252 | 3.2 | 6.4 | 0.05 | 0.05 | 0.05 | 83 | 1017.3 |
| 20260504180114 | 13 | 244 | 3.2 | 12.9 | 0.05 | 0.05 | 0.05 | 82 | 1017.4 |
| 20260504174553 | 14 | 258 | 1.6 | 12.9 | 0.03 | 0.03 | 0.03 | 79 | 1017.4 |
| 20260504173054 | 16 | 268 | 1.6 | 11.3 | 0.00 | 0.00 | 0.00 | 73 | 1017.2 |
| 20260504171558 | 16 | 252 | 0.0 | 3.2 | 0.00 | 0.00 | 0.00 | 68 | 1016.9 |
| 20260504160103 | 17 | 165 | 0.0 | 3.2 | 0.00 | 0.00 | 0.00 | 58 | 1016.6 |
| 20260504140106 | 18 | 252 | 0.0 | 6.4 | 0.00 | 0.00 | 0.00 | 56 | 1017.3 |
| 20260504081555 | 15 | 173 | 0.0 | 1.6 | 0.00 | 0.00 | 0.00 | 67 | 1018.6 |
| 20260504050104 | 13 | 0 | 0.0 | 0.0 | 0.00 | 0.00 | 0.00 | 71 | 1017.1 |